Hourly Data Report for September 01, 2017

All times are specified in Local Standard Time (LST). Add 1 hour to adjust for Daylight Saving Time where and when it is observed.

NAPPAN AUTO
NOVA SCOTIA

45°45'34.400" N
64°14'29.200" W
19.80 m
8203702
71311
XNP

Download Data

Hourly Data (September 2017)
Hourly Data Report for September 1, 2017
Temp Definition
°C
Dew Point Temp Definition
°C
Rel Hum Definition
%
Wind Dir Definition
10's deg

Wind Spd Definition
km/h
Visibility Definition
km
Stn Press Definition
kPa
Hmdx Definition


Wind Chill Definition


Weather Definition


TIME
00:00 12.0 8.9 81 24 6   100.30     LegendNANA
01:00 12.6 9.3 80 28 16   100.35     LegendNANA
02:00 11.0 7.7 80 30 12   100.36     LegendNANA
03:00 10.4 6.8 78 26 5   100.38     LegendNANA
04:00 9.5 6.6 82 19 8   100.41     LegendNANA
05:00 9.7 7.3 86 18 7   100.39     LegendNANA
06:00 8.6 7.1 91 19 8   100.43     LegendNANA
07:00 10.9 8.3 84 17 10   100.47     LegendNANA
08:00 13.1 8.8 75 25 11   100.48     LegendNANA
09:00 12.5 7.8 73 26 17   100.50     LegendNANA
10:00 14.0 8.3 69 25 13   100.48     LegendNANA
11:00 15.1 8.1 63 24 19   100.46     LegendNANA
12:00 14.5 7.8 64 24 21   100.44     LegendNANA
13:00 15.9 6.7 54 23 27   100.43     LegendNANA
14:00 15.7 7.1 56 23 26   100.41     LegendNANA
15:00 15.0 4.9 51 25 28   100.40     LegendNANA
16:00 13.9 6.1 59 24 27   100.46     LegendNANA
17:00 12.2 5.3 63 26 20   100.55     LegendNANA
18:00 12.1 5.8 65 25 16   100.58     LegendNANA
19:00 11.2 5.8 69 26 19   100.63     LegendNANA
20:00 10.8 6.4 74 25 19   100.70     LegendNANA
21:00 10.7 7.1 79 28 26   100.74     LegendNANA
22:00 10.3 7.6 83 28 18   100.78     LegendNANA
23:00 11.1 7.7 80 29 22   100.82     LegendNANA

Notes on Data Quality.

Legend

  • E = Estimated
  • M = Missing
  • NA = Not Available
  • ‡ = Partner data that is not subject to review by the National Climate Archives
Date modified: